This is the latest recevied weather packets stored in our database for station/object KD9CCP. If no packets are shown the sender has not sent any weather packets the latest 10 day(s).
| Time | Temp. | Humidity | Pressure | Rain* | Wind** | Luminosity | Snow |
|---|---|---|---|---|---|---|---|
| 1777885335 | 9.44° C | 57% | 999.2 hPa | 0 mm | - | 0 W/m² | - |
| 1777885033 | 8.89° C | 57% | 999.4 hPa | 0 mm | - | 0 W/m² | - |
| 1777884729 | 8.89° C | 59% | 999.3 hPa | 0 mm | - | 0 W/m² | - |
| 1777884425 | 8.89° C | 58% | 999.5 hPa | 0 mm | - | 0 W/m² | - |
| 1777884122 | 8.89° C | 59% | 999.5 hPa | 0 mm | - | 0 W/m² | - |
| 1777883819 | 8.89° C | 56% | 999.8 hPa | 0 mm | - | 0 W/m² | - |
| 1777883515 | 8.89° C | 60% | 999.6 hPa | 0 mm | - | 0 W/m² | - |
| 1777883211 | 8.89° C | 60% | 1000 hPa | 0 mm | - | 0 W/m² | - |
| 1777882908 | 8.89° C | 54% | 999.9 hPa | 0 mm | - | 0 W/m² | - |
| 1777882605 | 8.89° C | 59% | 1000.4 hPa | 0 mm | - | 0 W/m² | - |
| 1777882301 | 8.89° C | 56% | 1000.4 hPa | 0 mm | - | 0 W/m² | - |
| 1777881998 | 8.89° C | 63% | 1000.4 hPa | 0 mm | - | 0 W/m² | - |
| 1777881694 | 8.89° C | 62% | 1000.5 hPa | 0 mm | - | 0 W/m² | - |
| 1777881391 | 8.89° C | 62% | 1000.6 hPa | 0 mm | - | 0 W/m² | - |
| 1777881088 | 8.89° C | 58% | 1000.7 hPa | 0 mm | - | 0 W/m² | - |
| 1777880787 | 8.33° C | 60% | 1000.9 hPa | 0 mm | - | 0 W/m² | - |
| 1777880484 | 7.78° C | 65% | 1000.8 hPa | 0 mm | - | 0 W/m² | - |
| 1777880182 | 7.78° C | 66% | 1000.7 hPa | 0 mm | - | 0 W/m² | - |
| 1777879880 | 7.22° C | 72% | 1001 hPa | 0 mm | - | 0 W/m² | - |
| 1777879578 | 7.22° C | 70% | 1001 hPa | 0 mm | - | 0 W/m² | - |
| 1777879275 | 7.22° C | 69% | 1001.1 hPa | 0 mm | - | 0 W/m² | - |
| 1777878972 | 7.22° C | 71% | 1001.1 hPa | 0 mm | - | 0 W/m² | - |
| 1777878669 | 7.78° C | 70% | 1001.4 hPa | 0 mm | - | 0 W/m² | - |
| 1777878366 | 6.67° C | 71% | 1001.3 hPa | 0 mm | - | 0 W/m² | - |
| 1777878062 | 6.67° C | 72% | 1001.2 hPa | 0 mm | - | 0 W/m² | - |
* Rain latest hour (hover to see other rain measurements)
** Current wind speed in m/s (hover to see current wind gust speed)